Wind_Speed
6 5 5 5 5 5 5 5 6 7 7 8 9 9 10 10 11 11 11 12 12 12 13 12 12 11 11 11 11 11 12 12 12 12 13 14 14 15
6 5 5 4 4 5 6 6 6 7 8 9 9 10 10 11 11 11 11 12 12 13 13 12 12 12 11 12 12 12 13 13 14 14 14 15 15 15
6 6 5 5 5 5 6 7 7 7 8 9 9 9 10 10 10 11 11 11 12 12 13 13 13 13 13 13 14 14 15 15 15 15 16 16 17 18
7 6 6 6 6 6 6 6 7 7 8 8 9 9 10 10 11 11 12 12 13 13 13 13 13 14 14 15 15 16 16 16 16 17 18 19 19 20
7 7 7 7 7 6 6 6 7 7 8 8 9 10 11 11 11 12 12 13 14 14 14 14 14 15 16 16 17 17 18 18 19 20 20 21 22 23
7 7 7 7 7 7 7 7 8 8 9 9 10 11 11 12 13 13 13 14 14 15 15 16 16 17 17 18 18 19 19 20 20 21 22 23 24 24
8 8 8 8 8 8 8 8 9 9 9 10 11 12 12 12 13 13 14 15 15 16 16 16 17 18 19 20 20 20 21 22 23 24 25 25 25 26
9 9 9 9 9 9 9 9 10 10 11 11 12 12 13 13 14 14 14 15 16 17 17 18 18 19 20 20 21 21 23 24 25 26 26 26 27 28
10 10 11 11 11 11 11 11 11 12 12 13 13 14 14 15 15 15 15 16 17 18 18 19 19 20 21 22 22 23 24 25 26 27 27 28 29 30
13 12 12 12 12 12 13 13 13 13 14 14 14 14 15 15 15 16 16 17 18 19 19 20 21 21 22 23 23 24 25 27 28 28 29 30 31 33
13 13 13 14 14 14 14 15 15 15 15 15 15 16 16 17 17 17 17 18 18 19 20 22 22 22 22 23 24 25 27 28 30 31 32 33 34 35
13 13 13 14 14 15 15 15 15 15 16 16 17 17 17 17 18 19 19 19 20 21 22 23 24 24 24 24 26 28 29 31 32 34 35 35 36 36
14 15 15 15 15 16 16 16 16 16 17 17 17 18 18 19 19 20 21 21 22 23 24 25 25 25 26 26 28 30 32 33 34 35 36 36 36 36
16 16 16 17 17 17 16 16 17 17 18 18 18 19 20 20 21 22 23 24 24 25 26 26 26 27 28 29 30 32 33 35 35 36 36 37 37 37
17 17 17 17 17 17 16 17 18 18 19 19 19 20 21 22 22 23 24 25 26 26 26 27 28 29 29 31 32 33 34 35 36 36 37 38 38 38
18 17 17 18 18 18 18 18 19 19 20 20 21 22 22 23 23 24 25 25 26 27 27 28 28 29 31 32 34 35 36 37 38 38 39 39 39 39
19 19 19 19 19 19 19 20 20 20 21 21 22 23 23 23 24 25 26 26 26 27 28 29 30 31 33 34 35 36 36 37 38 39 39 40 40 40
21 20 21 21 20 21 21 21 21 22 23 23 24 24 24 24 25 26 27 28 28 28 29 30 31 32 34 35 36 36 37 38 39 40 40 40 40 40
21 21 21 21 21 21 22 22 23 23 24 24 24 24 25 25 26 28 28 29 29 30 30 31 32 33 34 35 36 37 38 38 39 39 40 41 41 41
21 21 21 21 22 23 23 24 24 24 24 25 26 26 26 27 28 29 30 30 31 31 32 33 34 35 35 36 37 38 39 39 39 40 41 41 42 41
22 22 23 23 23 23 24 24 25 25 26 26 27 27 27 28 29 30 31 32 32 33 34 34 35 36 36 37 38 39 39 40 40 40 41 41 42 42
23 23 23 23 24 24 25 25 26 26 27 27 28 28 28 29 30 31 31 32 33 34 35 36 36 37 38 38 39 39 39 40 40 41 42 42 42 42
24 25 25 25 26 26 26 27 27 27 28 28 28 28 29 30 30 31 32 33 34 35 36 37 38 39 39 38 38 38 39 39 41 41 42 43 44 44
Wind_Direction
255 258 267 262 267 278 290 297 300 305 309 312 316 321 323 325 326 326 330 334 334 335 335 335 336 335 332 332 332 332 331 328 326 325 324 322 320 317
253 261 262 261 268 282 292 296 302 306 307 308 312 316 318 321 324 325 327 330 331 333 333 330 330 332 331 331 329 328 327 327 326 323 320 318 319 320
252 258 256 265 274 285 291 294 300 305 307 311 315 318 320 323 327 328 328 328 327 329 329 326 325 325 324 325 323 321 320 320 319 320 320 319 318 316
252 255 258 267 274 280 286 294 303 308 310 315 318 320 321 323 324 325 328 328 328 328 330 328 326 324 324 322 320 319 318 320 320 319 318 316 314 313
254 255 261 268 273 275 281 291 301 307 309 313 316 316 317 319 321 321 323 326 327 329 331 329 328 326 325 324 321 320 318 317 316 316 315 314 313 312
252 255 261 268 272 276 281 290 297 301 305 309 312 313 314 315 316 319 322 324 325 326 327 327 325 324 322 321 320 319 317 316 314 313 312 312 311 311
253 261 266 271 272 276 281 289 295 299 303 307 310 311 313 315 316 318 319 321 322 321 321 322 322 321 320 320 319 318 317 316 315 313 312 311 311 310
258 264 266 270 272 274 281 289 294 298 303 306 309 309 309 312 316 318 319 319 318 318 319 319 319 319 319 319 318 318 318 317 315 313 312 311 310 309
261 266 267 270 272 274 280 286 292 295 298 302 305 309 310 311 313 314 315 316 317 317 317 318 319 319 317 317 317 317 317 317 317 315 313 312 311 310
263 265 268 270 273 277 281 286 290 293 295 298 302 306 310 311 310 311 313 314 314 315 315 316 316 316 316 316 316 318 319 319 318 317 316 314 312 311
264 265 268 270 275 280 283 286 288 291 293 297 301 303 305 307 308 309 311 313 312 314 315 317 318 316 316 317 317 318 319 319 318 317 315 314 312 311
266 270 273 274 276 280 284 286 287 289 291 295 299 303 305 306 306 308 310 311 311 312 312 315 317 317 316 316 316 316 317 318 317 316 315 314 313 311
270 273 275 275 278 281 284 285 287 289 292 295 299 301 303 303 304 305 306 307 309 309 310 312 314 315 315 315 316 316 317 317 317 317 316 315 314 313
271 273 276 277 279 280 283 286 289 290 292 295 297 299 301 302 302 303 304 305 307 308 308 310 312 313 313 315 316 316 317 317 317 317 316 316 316 314
271 272 275 277 279 281 284 287 290 291 292 294 296 298 298 300 302 304 306 306 306 307 308 309 311 311 312 313 315 316 317 317 317 317 316 316 315 314
272 273 275 278 278 280 284 287 290 292 292 292 295 298 298 299 301 303 305 307 308 308 308 309 311 312 313 314 315 316 316 317 318 318 318 317 316 314
271 272 274 278 278 279 281 285 289 292 293 293 295 297 297 299 302 305 306 307 309 309 309 309 310 311 312 313 313 315 316 317 318 318 319 318 316 315
270 272 274 276 277 279 281 283 285 288 290 292 295 296 297 299 302 303 304 305 306 307 308 309 309 310 312 312 313 314 315 316 317 318 319 319 318 316
270 272 274 275 275 276 279 282 284 286 289 292 293 294 296 298 301 303 304 305 306 306 307 308 309 311 312 313 314 314 315 316 317 318 319 319 318 317
272 273 275 276 276 278 280 283 285 287 289 292 293 293 294 297 299 301 302 303 305 306 308 309 310 310 311 313 314 314 315 316 317 318 318 319 319 319
273 274 276 276 277 278 280 283 286 288 288 289 291 293 295 296 298 300 301 303 304 305 306 308 310 310 310 311 312 313 314 315 316 317 318 318 319 319
274 274 275 276 276 277 279 283 285 287 288 288 290 292 294 296 298 300 301 303 304 305 306 307 308 309 309 310 311 312 313 314 315 316 317 318 318 318
273 274 275 276 278 279 282 285 287 288 288 288 288 291 293 294 296 299 301 302 304 305 305 306 307 308 309 310 312 313 314 314 315 316 317 318 318 318
Height
5845 5845 5846 5846 5846 5846 5847 5846 5847 5846 5846 5845 5844 5843 5842 5841 5840 5839 5838 5836 5834 5833 5831 5829 5828 5826 5825 5823 5822 5820 5819 5817 5816 5815 5813 5812 5810 5809
5844 5844 5844 5844 5845 5845 5845 5845 5845 5845 5844 5843 5843 5842 5841 5840 5838 5837 5836 5834 5832 5831 5829 5827 5826 5824 5823 5821 5820 5818 5817 5815 5814 5812 5810 5809 5807 5805
5842 5843 5843 5843 5843 5844 5843 5843 5843 5843 5842 5842 5841 5840 5839 5838 5837 5835 5834 5832 5830 5829 5827 5825 5824 5822 5821 5819 5818 5816 5814 5813 5811 5809 5807 5805 5803 5801
5841 5841 5842 5842 5842 5842 5842 5842 5841 5841 5840 5840 5839 5838 5837 5836 5835 5834 5832 5831 5829 5827 5825 5823 5822 5820 5818 5816 5815 5813 5811 5809 5807 5806 5803 5801 5799 5796
5839 5840 5840 5840 5841 5840 5840 5840 5840 5839 5839 5838 5837 5836 5835 5834 5833 5832 5830 5828 5827 5825 5823 5821 5819 5818 5816 5813 5811 5809 5808 5806 5803 5801 5799 5796 5793 5791
5838 5838 5838 5839 5839 5839 5839 5839 5838 5837 5837 5836 5835 5834 5833 5832 5831 5829 5828 5826 5824 5823 5821 5819 5817 5814 5812 5810 5808 5806 5803 5801 5798 5796 5793 5791 5788 5785
5836 5836 5837 5837 5837 5837 5837 5836 5836 5835 5835 5834 5833 5832 5831 5829 5828 5826 5825 5823 5822 5820 5818 5816 5814 5811 5809 5806 5804 5801 5799 5796 5793 5790 5787 5784 5781 5778
5834 5834 5834 5835 5835 5835 5834 5834 5834 5833 5832 5831 5830 5829 5828 5827 5825 5824 5822 5821 5819 5817 5815 5813 5811 5808 5805 5802 5799 5797 5794 5790 5787 5784 5781 5777 5774 5771
5831 5832 5832 5832 5832 5832 5832 5832 5831 5830 5830 5829 5828 5826 5825 5824 5822 5820 5819 5817 5815 5813 5811 5808 5806 5804 5800 5798 5795 5791 5788 5785 5781 5777 5774 5771 5767 5763
5828 5829 5829 5829 5829 5829 5829 5829 5828 5827 5826 5825 5824 5823 5821 5820 5818 5817 5815 5813 5811 5809 5807 5804 5801 5799 5796 5792 5789 5786 5782 5778 5775 5771 5767 5763 5759 5755
5825 5825 5826 5826 5826 5826 5825 5825 5824 5823 5822 5821 5820 5819 5817 5816 5814 5813 5811 5809 5807 5805 5802 5799 5796 5793 5790 5787 5784 5780 5777 5773 5768 5764 5760 5755 5751 5746
5822 5822 5822 5822 5822 5822 5821 5821 5820 5819 5819 5818 5816 5815 5813 5812 5810 5808 5806 5804 5802 5800 5797 5794 5791 5788 5785 5782 5778 5774 5770 5766 5761 5757 5752 5747 5742 5737
5818 5818 5818 5818 5818 5818 5817 5817 5816 5815 5814 5813 5812 5810 5809 5807 5806 5804 5802 5799 5797 5795 5792 5789 5786 5782 5779 5776 5772 5768 5763 5759 5754 5749 5743 5738 5733 5728
5814 5814 5814 5813 5813 5813 5812 5812 5811 5810 5810 5808 5807 5806 5804 5803 5801 5798 5796 5794 5791 5789 5786 5783 5780 5776 5773 5769 5765 5761 5756 5751 5746 5740 5735 5729 5724 5719
5809 5809 5809 5809 5808 5808 5808 5807 5806 5805 5804 5803 5802 5801 5799 5797 5795 5792 5790 5787 5785 5782 5779 5776 5773 5770 5766 5762 5758 5753 5749 5743 5738 5732 5726 5721 5715 5710
5804 5804 5804 5804 5803 5803 5803 5802 5801 5800 5799 5798 5796 5795 5793 5791 5789 5786 5784 5781 5778 5775 5772 5769 5766 5762 5759 5755 5750 5745 5740 5735 5730 5724 5718 5712 5706 5700
5798 5799 5799 5798 5798 5798 5797 5796 5795 5794 5793 5792 5790 5789 5787 5785 5783 5780 5778 5775 5772 5769 5765 5762 5758 5755 5751 5747 5742 5737 5732 5726 5721 5715 5709 5703 5696 5690
5793 5793 5793 5793 5792 5792 5791 5790 5790 5788 5787 5786 5784 5782 5781 5779 5776 5774 5771 5768 5765 5762 5759 5755 5751 5747 5743 5738 5734 5729 5723 5718 5712 5706 5700 5694 5687 5681
5787 5787 5787 5786 5786 5785 5785 5784 5783 5782 5781 5779 5777 5775 5774 5772 5769 5767 5764 5761 5758 5755 5751 5747 5743 5739 5735 5730 5725 5720 5715 5709 5703 5697 5691 5684 5678 5672
5781 5781 5780 5780 5779 5779 5778 5777 5776 5775 5774 5772 5770 5768 5766 5764 5762 5759 5756 5753 5750 5747 5743 5739 5735 5731 5726 5722 5716 5711 5705 5700 5694 5688 5682 5675 5668 5662
5774 5774 5773 5773 5772 5772 5771 5770 5769 5767 5766 5764 5763 5761 5759 5756 5754 5751 5748 5745 5741 5738 5734 5730 5726 5721 5717 5712 5707 5702 5696 5690 5684 5679 5673 5666 5660 5653
5767 5766 5766 5765 5764 5764 5763 5762 5761 5759 5758 5756 5755 5753 5750 5748 5745 5742 5739 5736 5733 5729 5725 5721 5716 5712 5707 5702 5697 5692 5687 5681 5674 5668 5662 5656 5650 5643
5759 5758 5758 5757 5757 5756 5755 5754 5752 5751 5750 5748 5746 5744 5742 5739 5736 5733 5730 5727 5723 5720 5716 5711 5707 5702 5697 5692 5687 5682 5677 5671 5665 5659 5653 5646 5640 5633